Regional Weather Roundup
Issued by NWS

Home | Current Version | Previous Version | Text Only | Print | Product List | Glossary Off
Versions: 1 2 3 4 5 6 7 8 9 10 11 12 13 14 15 16 17 18 19 20 21 22 23 24 25 26 27 28 29 30 31 32 33 34 35 36 37 38 39 40 41 42 43 44 45 46 47 48 49 50

000
ASUS43 KLSX 162159
RWRMO

WEATHER SUMMARY FOR MISSOURI
NATIONAL WEATHER SERVICE SPRINGFIELD MO
500 PM CDT TUE SEP 16 2014

NOTE: "FAIR" INDICATES FEW OR NO CLOUDS BELOW 12,000 FEET WITH NO
       SIGNIFICANT WEATHER AND/OR OBSTRUCTIONS TO VISIBILITY.
       CURRENT SKY AND/OR WEATHER CONDITIONS ARE NOT AVAILABLE FOR
       CHILLICOTHE AND FARMINGTON.

MOZ001>031-035>038-043-044-053-054-162300-
...NORTHERN AND WESTERN MISSOURI...

CITY           SKY/WX    TMP DP  RH WIND       PRES   REMARKS
KANSAS CTY INT SUNNY     70  51  51 VRB6      30.08F
KANSAS C DTWN  SUNNY     73  51  46 VRB3      30.07F
LEE`S SUMMIT   SUNNY     71  53  52 SE5       30.08F
ST JOSEPH      SUNNY     70  53  54 S8        30.07F
KIRKSVILLE     SUNNY     66  48  52 SW3       30.11F

$$
MOZ066>068-077>081-088>096-101>105-162300-
...SOUTHWEST MISSOURI...

CITY           SKY/WX    TMP DP  RH WIND       PRES   REMARKS
SPRINGFIELD    CLOUDY    74  60  61 E6        30.08F
JOPLIN         CLOUDY    74  64  71 NE5       30.07F

$$
MOZ032>034-039>042-045>050-055>058-069>072-162300-
...CENTRAL MISSOURI...

CITY           SKY/WX    TMP DP  RH WIND       PRES   REMARKS
COLUMBIA       SUNNY     71  53  52 E3        30.10F
JEFFERSON CITY SUNNY     72  52  49 VRB6      30.09F
ROLLA          HAZE      67  54  63 CALM      30.10F VSB 3/4
SEDALIA        SUNNY     71  54  54 S7        30.09F
OSAGE BEACH    MOSUNNY   66  55  68 CALM      30.10F

$$
MOZ051-052-059>065-162300-
...EAST CENTRAL MISSOURI...

CITY           SKY/WX    TMP DP  RH WIND       PRES   REMARKS
ST LOUIS INTL  PTSUNNY   65  52  62 E5        30.12F
SPIRIT OF STL  MOSUNNY   67  53  61 N5        30.11F
ST CHARLES     MOSUNNY   64  52  64 CALM      30.11F

$$
MOZ072>076-082>087-097>100-106>115-162300-
...SOUTH CENTRAL AND SOUTHEAST MISSOURI...

CITY           SKY/WX    TMP DP  RH WIND       PRES   REMARKS
CAPE GIRARDEAU SUNNY     68  54  60 NE10      30.10F
FARMINGTON     MOSUNNY   70  54  56 E5        30.12F
POPLAR BLUFF   CLOUDY    71  55  56 NE5       30.09S
WEST PLAINS    CLOUDY    67  57  70 SE5       30.12S

$$



USA.gov is the U.S. government's official web portal to all federal, state and local government web resources and services.